Wind_Speed
25 21 17 15 15 16 15 19 20 10 9 10 4 1 3 5 11 13 12 15 17 21 24 26 35 39 40 40 39 40 41 42 43 45 41 42 41 45
29 27 25 20 16 17 16 17 15 9 8 7 3 1 2 6 14 12 13 8 9 11 20 20 25 34 35 39 40 38 34 40 40 41 40 41 38 45
28 30 26 25 22 17 13 12 11 10 8 3 1 1 5 10 15 14 12 10 7 7 14 18 25 29 30 34 34 28 31 39 32 38 36 36 35 40
24 26 26 25 26 22 16 10 10 9 6 4 5 4 6 8 10 10 7 10 6 6 12 14 19 20 25 24 26 25 25 29 29 33 33 31 31 33
11 17 19 20 21 20 18 18 11 5 3 4 4 6 6 7 7 6 6 7 8 8 8 11 13 16 15 16 18 23 19 21 20 21 24 21 26 26
9 12 6 10 11 14 17 16 17 17 14 9 4 2 4 6 6 7 9 7 7 10 12 12 10 8 5 9 10 13 13 14 18 18 21 16 14 20
12 9 10 9 12 7 6 12 9 13 14 12 14 15 14 15 12 6 7 9 12 12 9 10 10 5 1 1 4 4 10 10 12 14 19 20 16 13
23 21 17 11 12 8 7 11 13 9 11 6 6 8 12 13 11 15 9 7 7 11 9 7 7 8 8 7 5 5 12 9 9 10 10 12 13 11
31 27 24 21 20 16 17 15 14 15 13 14 13 8 10 11 12 18 12 9 7 8 5 7 6 10 13 13 12 13 13 13 14 13 13 7 8 8
37 37 36 30 28 26 24 24 25 21 22 21 22 20 25 23 23 18 17 12 13 15 9 6 9 11 10 13 14 12 16 16 18 18 19 15 15 8
44 42 42 43 39 40 35 31 29 28 31 30 29 29 29 28 31 27 25 22 18 23 17 15 16 17 16 20 19 16 13 14 15 18 20 20 21 22
50 49 48 47 50 49 45 45 42 42 35 37 36 34 36 34 34 38 35 34 33 32 24 28 24 24 24 24 22 19 19 18 18 18 18 19 21 27
60 58 51 53 54 54 55 56 54 51 48 45 41 41 43 41 39 41 44 44 41 40 39 39 40 34 32 33 31 28 29 31 21 25 28 25 21 20
65 63 63 58 61 61 58 59 59 58 57 56 54 49 47 47 44 42 46 45 46 44 46 42 49 50 48 49 48 39 35 38 41 40 34 33 23 20
73 73 72 72 72 69 66 67 64 64 62 62 65 61 58 58 56 55 52 53 56 56 52 48 51 54 54 55 52 52 41 35 40 45 47 39 32 32
75 81 81 83 83 78 76 73 74 72 71 69 67 68 67 68 67 63 62 62 65 62 67 63 59 55 60 61 59 60 60 53 41 42 46 49 49 44
84 88 89 88 86 86 81 81 83 81 78 77 76 74 75 75 76 79 79 75 74 75 76 74 64 65 61 66 68 69 71 68 63 55 47 57 63 58
85 91 91 91 92 94 92 91 86 87 92 91 87 85 85 83 80 85 78 78 77 80 78 77 76 68 70 70 71 75 78 81 78 74 68 59 63 62
92 97 92 100 101 99 98 97 94 92 93 95 96 94 89 96 91 83 91 89 85 82 80 81 83 83 76 78 82 86 81 80 84 85 85 76 68 72
97 95 104 109 105 103 101 99 104 106 104 106 102 99 99 92 94 86 89 95 96 92 92 93 96 98 102 99 95 101 103 98 90 89 92 89 85 81
114 118 115 111 113 114 112 113 112 115 116 115 110 113 114 114 112 110 112 114 108 107 109 112 110 107 105 104 96 99 102 106 108 102 98 95 94 91
118 122 121 118 120 122 125 126 126 125 125 125 125 126 124 118 118 124 126 128 127 126 124 123 123 123 123 118 119 121 116 114 119 114 112 109 102 97
125 125 126 125 124 129 135 136 135 132 131 130 135 137 138 142 137 139 137 138 140 142 143 138 140 141 135 136 137 136 131 128 127 124 120 117 118 110
Wind_Direction
70 75 88 103 114 115 116 132 143 172 167 121 129 58 20 34 52 50 76 65 59 46 35 29 33 36 38 43 51 49 53 50 50 50 49 48 53 52
64 62 64 76 95 115 123 136 151 144 119 123 118 352 20 24 19 23 25 46 48 52 50 42 29 36 43 41 47 45 49 46 47 47 46 48 50 53
63 62 62 62 61 75 100 127 146 156 156 155 290 36 32 34 26 11 22 53 62 47 38 50 39 44 48 45 42 51 55 45 50 46 47 59 56 54
71 69 68 68 64 63 71 96 148 176 190 225 268 341 351 357 12 16 46 58 84 51 54 48 40 44 40 48 48 50 59 50 52 44 51 59 62 65
37 58 69 72 67 67 67 75 89 117 207 240 250 270 272 305 319 324 7 26 32 32 46 30 38 19 52 56 48 46 42 42 53 34 27 52 54 66
23 360 34 31 37 57 61 60 63 68 72 72 62 345 324 305 313 291 310 321 341 355 347 338 5 28 32 54 47 36 42 36 37 31 30 37 46 59
292 312 324 333 318 23 63 29 41 60 48 53 67 75 74 59 46 2 313 303 306 312 329 331 331 329 62 11 345 47 18 3 9 27 30 33 36 23
284 291 287 283 280 283 291 304 313 326 338 21 42 86 79 50 38 30 31 9 315 293 297 303 314 308 305 319 306 314 328 324 329 337 23 28 26 15
263 267 272 271 268 267 280 280 284 300 281 290 304 322 319 351 339 7 353 360 358 321 322 308 294 276 282 282 290 302 310 294 306 304 306 333 4 20
265 265 270 268 264 266 273 282 280 281 265 271 290 284 295 301 313 315 325 327 348 338 327 311 317 332 308 301 290 280 284 282 275 285 292 285 290 293
267 268 270 272 277 276 268 270 276 279 276 279 268 270 266 286 272 290 298 290 297 317 311 330 330 318 320 317 315 309 293 278 273 268 273 279 282 283
268 267 274 277 275 272 274 274 279 277 275 275 275 271 262 270 276 278 287 289 284 288 285 293 297 305 308 316 311 311 317 310 312 311 300 283 271 274
266 263 271 276 277 276 274 271 273 275 274 272 269 270 271 271 274 276 276 283 287 285 287 281 279 288 285 297 298 296 292 308 305 309 311 316 303 281
264 264 270 272 277 274 275 274 273 272 270 271 269 263 262 262 266 271 272 275 282 281 283 280 278 277 285 284 295 296 289 284 291 299 301 307 301 295
262 267 267 270 274 271 270 274 275 279 280 277 271 265 262 264 263 264 266 270 279 283 280 280 280 269 278 282 287 292 294 279 273 283 293 297 298 298
266 268 269 268 271 273 270 271 273 276 275 278 276 271 273 270 265 262 267 268 275 274 280 281 269 273 274 277 273 283 288 291 285 277 273 280 286 294
265 265 266 266 268 269 269 270 270 269 270 272 277 276 276 274 274 271 272 273 273 276 279 276 270 265 272 269 271 271 273 280 286 289 275 274 276 280
267 262 263 265 266 268 269 269 269 269 269 271 274 275 273 274 272 272 268 271 280 278 273 273 274 265 264 269 268 269 276 274 275 286 282 281 273 269
260 259 260 258 259 262 266 269 269 271 270 269 276 273 275 269 270 273 267 269 273 270 271 267 271 274 269 268 270 267 267 272 271 272 280 281 274 273
259 259 260 258 260 262 264 263 262 264 265 269 267 267 269 264 263 264 262 270 271 271 273 270 267 271 273 274 274 271 273 272 268 264 272 276 275 278
262 261 266 264 260 261 263 263 265 264 263 264 263 264 264 265 263 263 260 266 266 268 270 271 271 270 268 270 267 266 267 270 274 269 265 269 269 271
266 264 267 266 266 264 264 266 268 266 264 264 264 265 264 264 264 264 262 263 265 268 268 266 266 266 265 264 265 267 266 264 268 269 267 267 267 264
265 265 265 266 266 265 265 266 268 269 268 269 266 263 264 268 270 270 268 267 267 266 266 266 265 267 266 265 265 265 263 264 263 262 267 268 269 268
Height
11012 11009 11006 11001 11000 11002 11001 11003 11004 11010 11009 11004 11004 11011 11011 11009 11003 11000 11001 11001 10998 10995 10993 10990 10985 10980 10976 10971 10967 10963 10958 10954 10949 10945 10940 10936 10931 10925
11013 11010 11007 11005 11003 11003 11004 11007 11012 11014 11011 11010 11014 11018 11015 11008 11003 11002 11003 11003 11000 10997 10994 10992 10989 10985 10981 10976 10973 10970 10965 10962 10957 10952 10948 10944 10940 10935
11019 11016 11012 11008 11006 11005 11006 11006 11008 11010 11013 11015 11016 11016 11011 11008 11007 11005 11005 11004 11001 10999 10997 10994 10992 10989 10986 10983 10979 10976 10973 10970 10966 10961 10957 10952 10949 10944
11027 11024 11020 11018 11015 11011 11010 11011 11013 11014 11015 11016 11015 11012 11010 11010 11009 11009 11007 11005 11002 11000 10998 10997 10995 10993 10990 10988 10985 10982 10979 10976 10973 10970 10966 10962 10959 10955
11037 11034 11031 11028 11025 11023 11022 11019 11017 11016 11015 11013 11012 11011 11011 11010 11010 11009 11008 11006 11003 11001 10999 10998 10997 10995 10992 10991 10989 10987 10984 10982 10978 10975 10973 10971 10968 10964
11037 11038 11035 11032 11028 11026 11024 11021 11019 11017 11014 11012 11010 11010 11010 11010 11009 11008 11006 11004 11003 11001 10999 10997 10996 10996 10994 10992 10991 10988 10986 10984 10982 10979 10976 10974 10973 10971
11029 11032 11033 11030 11028 11026 11024 11023 11021 11018 11017 11016 11014 11012 11010 11009 11007 11006 11005 11003 11001 11000 10999 10998 10996 10996 10995 10992 10990 10988 10987 10986 10985 10983 10980 10977 10976 10975
11024 11027 11029 11027 11025 11023 11023 11021 11021 11020 11018 11016 11016 11013 11010 11008 11007 11006 11004 11002 11000 10998 10997 10996 10996 10994 10992 10993 10991 10989 10988 10985 10984 10983 10982 10980 10977 10976
11026 11025 11024 11022 11019 11017 11016 11017 11016 11016 11014 11014 11014 11012 11010 11008 11008 11005 11003 11002 11000 10998 10996 10993 10992 10992 10992 10990 10989 10987 10986 10985 10983 10982 10981 10980 10978 10976
11020 11020 11016 11015 11013 11011 11011 11010 11010 11010 11010 11009 11009 11008 11006 11006 11004 11004 11002 11001 11000 10998 10995 10992 10991 10990 10988 10986 10985 10983 10982 10981 10980 10980 10978 10977 10976 10975
11007 11006 11005 11005 11005 11005 11003 11002 11002 11002 11002 11002 11002 11001 11000 11000 10999 10999 10998 10998 10997 10997 10994 10992 10989 10988 10987 10986 10983 10981 10978 10976 10975 10973 10974 10973 10972 10970
10992 10990 10992 10994 10994 10994 10994 10994 10994 10994 10993 10992 10993 10992 10991 10992 10989 10989 10989 10989 10989 10988 10990 10986 10985 10984 10982 10981 10980 10977 10975 10973 10970 10968 10967 10966 10965 10965
10978 10976 10980 10979 10980 10979 10980 10981 10981 10983 10982 10981 10982 10982 10980 10981 10979 10979 10979 10978 10978 10978 10979 10978 10976 10976 10974 10972 10972 10972 10970 10968 10966 10962 10959 10958 10958 10956
10964 10962 10965 10965 10966 10965 10965 10965 10966 10967 10967 10968 10967 10967 10967 10966 10967 10967 10966 10965 10965 10966 10965 10968 10966 10964 10962 10962 10961 10960 10961 10959 10956 10955 10953 10949 10950 10950
10946 10946 10947 10948 10948 10948 10948 10950 10949 10950 10951 10951 10952 10952 10951 10950 10951 10950 10951 10951 10951 10950 10952 10953 10951 10949 10949 10948 10947 10946 10947 10945 10947 10946 10942 10942 10939 10939
10925 10926 10929 10930 10929 10929 10930 10932 10931 10932 10932 10932 10932 10933 10934 10933 10933 10931 10932 10932 10933 10932 10934 10936 10935 10934 10933 10932 10931 10930 10927 10927 10930 10932 10933 10930 10928 10927
10905 10905 10907 10909 10908 10907 10908 10909 10910 10910 10912 10911 10911 10912 10912 10913 10912 10912 10912 10911 10913 10912 10913 10914 10916 10918 10915 10914 10914 10914 10909 10909 10910 10913 10916 10915 10914 10914
10883 10882 10883 10885 10886 10884 10884 10886 10885 10886 10886 10888 10889 10889 10888 10889 10888 10889 10888 10889 10889 10888 10888 10889 10891 10893 10893 10891 10895 10892 10889 10890 10889 10889 10893 10897 10891 10892
10854 10858 10858 10860 10861 10863 10861 10859 10860 10860 10860 10860 10860 10861 10860 10860 10862 10861 10862 10862 10862 10862 10862 10863 10866 10869 10869 10868 10864 10863 10868 10865 10868 10867 10867 10870 10874 10867
10828 10828 10829 10831 10832 10833 10833 10833 10833 10832 10833 10832 10832 10832 10831 10831 10832 10831 10832 10834 10835 10834 10834 10833 10833 10836 10841 10843 10843 10828 10830 10837 10842 10847 10843 10844 10846 10847
10800 10798 10802 10800 10800 10801 10801 10801 10801 10802 10800 10800 10801 10802 10802 10803 10802 10800 10799 10801 10804 10807 10806 10803 10802 10801 10804 10807 10810 10805 10799 10796 10801 10808 10814 10817 10819 10821
10763 10766 10766 10767 10767 10768 10766 10765 10764 10764 10763 10763 10763 10763 10764 10763 10764 10764 10763 10762 10762 10764 10765 10766 10766 10766 10766 10767 10772 10775 10772 10765 10762 10765 10768 10778 10786 10793
10725 10728 10729 10731 10731 10730 10729 10727 10725 10723 10723 10723 10723 10722 10721 10720 10719 10718 10718 10718 10717 10717 10716 10718 10717 10718 10721 10719 10724 10729 10731 10732 10731 10732 10732 10730 10737 10751